York, PA

9:36 PM EST on December 14, 2019 (GMT -0500)
York

Weather History for KTHV - October, 2019

Change the Weather History Date:

Sunday, October 20, 2019

  Actual Average Record
Temperature  
Mean Temperature 50 °F -  
Max Temperature 55 °F 0 °F 80 °F (2016)
Min Temperature 46 °F - 26 °F (2008)
Degree Days  
Heating Degree Days 14    
Moisture  
Dew Point 49 °F    
Average Humidity 88    
Maximum Humidity 93    
Minimum Humidity 80    
Precipitation  
Precipitation 0.32 in - - ()
Sea Level Pressure  
Sea Level Pressure 29.98 in    
Wind  
Wind Speed 3 mph ()    
Max Wind Speed 10 mph    
Max Gust Speed -    
Visibility 5.7 miles    
Events Rain    
Averages and records for this station are not official NWS values.
T = Trace of Precipitation, MM = Missing Value Source: Averaged Metar Reports

Daily Weather History Graph

Daily Weather History Graph

Search for Another Location

Airport or City:

Astronomy

Oct. 20, 2019 Rise Set
Actual Time 7:22 AM EDT 6:21 PM EDT
Civil Twilight 6:55 AM EDT 6:48 PM EDT
Nautical Twilight 6:23 AM EDT 7:19 PM EDT
Astronomical Twilight 5:52 AM EDT 7:51 PM EDT
Moon 11:27 PM EDT (10/20) 1:48 PM EDT (10/20)
Length of Visible Light 11h 53m
Length of Day
10h 58m
Waning Gibbous, 59% of the Moon is Illuminated
Oct 20
Waning Gibbous
Oct 21
Last Quarter
Oct 27
New
Nov 4
First Quarter
Nov 12
Full

Hourly Weather History & Observations

Time (EDT) Temp. Dew Point Humidity Pressure Visibility Wind Dir Wind Speed Gust Speed Precip Events Conditions
12:53 AM 48.0 °F 42.1 °F 80% 30.00 in 10.0 mi Calm Calm - N/A   Clear
1:53 AM 46.9 °F 42.1 °F 83% 30.00 in 10.0 mi Calm Calm - N/A   Clear
2:53 AM 46.0 °F 42.1 °F 86% 29.98 in 10.0 mi Calm Calm - N/A   Clear
3:53 AM 46.9 °F 44.1 °F 90% 29.96 in 9.0 mi Calm Calm - N/A   Clear
4:53 AM 48.0 °F 45.0 °F 89% 29.96 in 10.0 mi Calm Calm - N/A   Mostly Cloudy
5:53 AM 51.1 °F 46.0 °F 83% 29.97 in 10.0 mi SE 3.5 mph - N/A   Overcast
6:53 AM 52.0 °F 46.9 °F 83% 29.99 in 9.0 mi Calm Calm - 0.00 in Rain Light Rain
7:53 AM 51.1 °F 48.0 °F 89% 29.99 in 5.0 mi Calm Calm - 0.02 in Rain Light Rain
8:53 AM 52.0 °F 48.0 °F 86% 29.99 in 6.0 mi NE 4.6 mph - 0.01 in Rain Light Rain
9:53 AM 51.1 °F 48.0 °F 89% 30.01 in 6.0 mi Calm Calm - 0.02 in Rain Light Rain
10:40 AM 52.0 °F 48.9 °F 89% 30.00 in 2.5 mi NNE 3.5 mph - 0.02 in Rain Light Rain
10:51 AM 51.8 °F 48.2 °F 88% 30.00 in 2.5 mi North 3.5 mph - 0.04 in Rain Light Rain
10:52 AM 52.0 °F 48.9 °F 89% 30.01 in 2.5 mi North 3.5 mph - 0.04 in Rain Light Rain
11:05 AM 52.0 °F 48.9 °F 89% 30.00 in 2.5 mi NE 3.5 mph - 0.02 in Rain Light Rain
11:24 AM 52.0 °F 48.9 °F 89% 30.00 in 3.0 mi NE 4.6 mph - 0.03 in Rain Light Rain
11:32 AM 52.0 °F 48.9 °F 89% 30.00 in 2.5 mi ENE 4.6 mph - 0.04 in Rain Light Rain
11:39 AM 52.0 °F 48.9 °F 89% 30.00 in 2.0 mi NE 4.6 mph - 0.06 in Rain Rain
11:53 AM 52.0 °F 50.0 °F 93% 30.01 in 2.0 mi NE 4.6 mph - 0.07 in Rain Light Rain
12:11 PM 52.0 °F 50.0 °F 93% 29.99 in 1.8 mi NE 5.8 mph - 0.02 in Rain Light Rain
12:22 PM 53.1 °F 50.0 °F 89% 29.99 in 2.5 mi East 5.8 mph - 0.03 in Rain Light Rain
12:26 PM 53.1 °F 50.0 °F 89% 29.98 in 3.0 mi ENE 5.8 mph - 0.04 in Rain Light Rain
12:53 PM 54.0 °F 50.0 °F 86% 29.98 in 4.0 mi ENE 6.9 mph - 0.06 in Rain Light Rain
1:13 PM 54.0 °F 51.1 °F 90% 29.96 in 4.0 mi Variable 4.6 mph - 0.01 in Rain Light Rain
1:53 PM 54.0 °F 50.0 °F 86% 29.95 in 6.0 mi ENE 6.9 mph - 0.01 in Rain Light Rain
2:03 PM 54.0 °F 51.1 °F 90% 29.94 in 8.0 mi East 8.1 mph - 0.01 in   Overcast
2:17 PM 55.0 °F 51.1 °F 86% 29.94 in 7.0 mi ENE 10.4 mph - 0.01 in   Mostly Cloudy
2:38 PM 55.0 °F 51.1 °F 86% 29.93 in 5.0 mi ENE 9.2 mph - 0.01 in Rain Light Rain
2:53 PM 55.0 °F 51.1 °F 86% 29.94 in 10.0 mi ENE 9.2 mph - 0.01 in   Overcast
3:53 PM 55.0 °F 50.0 °F 83% 29.94 in 10.0 mi NE 9.2 mph - N/A   Overcast
4:53 PM 54.0 °F 50.0 °F 86% 29.95 in 10.0 mi NE 9.2 mph - N/A   Overcast
5:40 PM 53.1 °F 50.0 °F 89% 29.95 in 4.0 mi NNE 5.8 mph - 0.01 in Rain Light Rain
5:53 PM 53.1 °F 50.0 °F 89% 29.96 in 3.0 mi NNE 8.1 mph - 0.02 in Rain Light Rain
6:24 PM 53.1 °F 48.9 °F 86% 29.95 in 4.0 mi NNE 6.9 mph - 0.01 in Rain Light Rain
6:32 PM 53.1 °F 48.9 °F 86% 29.95 in 5.0 mi NNE 5.8 mph - 0.01 in Rain Light Rain
6:53 PM 52.0 °F 48.9 °F 89% 29.96 in 5.0 mi North 6.9 mph - 0.02 in Rain Light Rain
7:19 PM 52.0 °F 48.9 °F 89% 29.95 in 5.0 mi NNE 5.8 mph - 0.01 in Rain Light Rain
7:53 PM 52.0 °F 48.9 °F 89% 29.97 in 5.0 mi NNE 5.8 mph - 0.02 in Rain Light Rain
8:02 PM 52.0 °F 48.9 °F 89% 29.96 in 5.0 mi North 5.8 mph - 0.00 in Rain Light Rain
8:35 PM 52.0 °F 48.9 °F 89% 29.97 in 4.0 mi North 5.8 mph - 0.02 in Rain Light Rain
8:53 PM 52.0 °F 48.9 °F 89% 29.98 in 6.0 mi NNE 6.9 mph - 0.02 in Rain Light Rain
9:00 PM 52.0 °F 48.9 °F 89% 29.96 in 6.0 mi NNE 5.8 mph - 0.00 in   Overcast
9:53 PM 52.0 °F 48.9 °F 89% 30.00 in 6.0 mi North 6.9 mph - 0.00 in   Overcast
10:32 PM 52.0 °F 48.9 °F 89% 29.98 in 6.0 mi North 5.8 mph - N/A   Overcast
10:53 PM 52.0 °F 48.9 °F 89% 29.99 in 6.0 mi Calm Calm - N/A   Mostly Cloudy
11:05 PM 52.0 °F 48.9 °F 89% 29.98 in 6.0 mi Calm Calm - N/A   Mostly Cloudy
11:49 PM 51.8 °F 48.2 °F 88% 29.99 in 8.0 mi North 3.5 mph - N/A   Overcast
11:53 PM 52.0 °F 48.9 °F 89% 30.00 in 8.0 mi NNW 4.6 mph - N/A   Overcast